User: anonymous   Login
Location: Elk Forest
(39.5314°N, 75.8738°W)
Time: 15:52:00
(UTC-04:00)
Language:

Resurs 01 Rocket - Orbit

View from above orbital plane
View from above orbital plane
View from above satellite
View from above satellite

Ground track
Ground track

The orbit data is extracted from the following two-line orbital elements,

1 23343U 94074B   17233.18079156  .00000007  00000-0  85335-5 0  9998
2 23343  98.1482 270.8950 0006056 215.5734 172.0382 14.76705532226423
Epoch (UTC): 21 August 2017 04:20:20
Eccentricity: 0.0006056
inclination: 98.1482°
perigee height: 635 km
apogee height: 644 km
right ascension of ascending node: 270.8950°
argument of perigee: 215.5734°
revolutions per day: 14.76705532
mean anomaly at epoch: 172.0382°
orbit number at epoch: 22642

The dashed part of the orbit path shows where the satellite is in the earth's shadow,  

DLR